Location: Austin
(30.3000°N, 97.7500°W)
Time: 02:47:44
(UTC-06:00)

Cosmos 2263 Rocket - Pass Details

Date: 20 November 2023
Orbit: 824 x 847 km, 71.0° (Epoch: 05 December)

Event Time Altitude Azimuth Distance (km) Brightness Sun altitude
Rises 19:20:33 0° 180° (S) 3,347 5.4 -23.2°
Reaches altitude 10° 19:23:06 10° 173° (S) 2,415 4.6 -23.8°
Enters shadow 19:26:12 29° 149° (SSE) 1,453 3.2 -24.4°
